Home   Weather   Seeb   Past weeks

Flag for Oman Past Weather in Seeb, Oman — Yesterday and Last 2 Weeks

Now
108 °F

Scattered clouds.


Feels Like: 110 °F
Forecast: 93 / 98 °F
Wind: 7 mph from East

Location: International Airport

Current Time: Jul 24, 2017 at 5:02:24 pm

Latest Report: Jul 24, 2017 at 3:50 pm


Visibility: N/A

Pressure: 29.39 "Hg

Humidity: 22%

Dew Point: 61 °F

Location of SeebLocation

Past Weather in Seeb — Graph

°F

Seeb Temperature Yesterday

Maximum temperature yesterday: 106 °F (at 9:50 am)
Minimum temperature yesterday: 91 °F (at 4:50 am)
Average temperature yesterday: 96 °F

High & Low Weather Summary for the Past Weeks

 TemperatureHumidityPressure
High106 °F (Jul 12, 9:50 pm)94% (Jul 10, 4:50 am)29.56 "Hg (Jul 10, 4:50 am)
Low86 °F (Jul 15, 2:50 am)14% (Jul 21, 1:50 pm)29.36 "Hg (Jul 20, 5:50 pm)
Average93 °F68%29.45 "Hg
* Reported Jul 9 2:50 pm — Jul 24 2:50 pm, Seeb. Weather by CustomWeather, © 2017

Note: Actual official high and low records may vary slightly from our data, if they occured in-between our weather recording intervals... More about our weather records

Advertising

Seeb Weather History for the Previous 24 Hours

Scroll right to see more
 ConditionsComfort  
Time TempWeatherWind HumidityBarometerVisibility
2:50 pm
Mon, Jul 24
102 °FPassing clouds.13 mph40%29.39 "Hg6 mi
1:50 pm99 °FPassing clouds.14 mph50%29.39 "Hg6 mi
12:50 pm100 °FPassing clouds.14 mph40%29.39 "Hg6 mi
11:50 am100 °FPassing clouds.15 mph42%29.42 "Hg6 mi
10:50 am100 °FClear.15 mph37%29.42 "Hg6 mi
9:50 am99 °FClear.14 mph42%29.45 "Hg6 mi
8:50 am95 °FClear.15 mph53%29.45 "Hg6 mi
7:50 am91 °FClear.8 mph71%29.42 "Hg6 mi
6:50 am90 °FClear.8 mph84%29.42 "Hg6 mi
5:50 am90 °FClear.7 mph84%29.39 "Hg6 mi
4:50 am95 °FClear.12 mph71%29.39 "Hg10 mi
3:50 am104 °FClear.10 mph31%29.39 "Hg10 mi
2:50 am104 °FClear.13 mph29%29.36 "Hg10 mi
1:50 am106 °FClear.15 mph26%29.39 "Hg10 mi
12:50 am106 °FClear.13 mph25%29.39 "Hg10 mi
11:50 pm
Sun, Jul 23
97 °FClear.1 mph42%29.39 "Hg10 mi
10:50 pm95 °FClear.3 mph53%29.42 "Hg10 mi
9:50 pm97 °FClear.2 mph56%29.42 "Hg10 mi
8:50 pm95 °FClear.1 mph56%29.42 "Hg6 mi
7:50 pm91 °FClear.3 mph75%29.42 "Hg4 mi
6:50 pm91 °FHaze.3 mph80%29.42 "Hg4 mi
5:50 pm93 °FHaze.5 mph71%29.42 "Hg4 mi
Weather by CustomWeather, © 2017

See weather overviewHow to use our weather pages